Stations météo

réclame
Mon MeteoGroup
Tain Range, Grande-Bretagne (3062): Température de l'air & dewpoint: 23.03.2020 22:00:00 - 29.03.2020 22:00:00 (BST)Tain Range, Grande-Bretagne (3062): Température de l'air -20cm & Température de l'air -100cm: 23.03.2020 22:00:00 - 29.03.2020 22:00:00 (BST)Tain Range, Grande-Bretagne (3062): Vitesse du vent & gusts: 23.03.2020 22:00:00 - 29.03.2020 22:00:00 (BST)Tain Range, Grande-Bretagne (3062): Direction du vent: 23.03.2020 22:00:00 - 29.03.2020 22:00:00 (BST)Tain Range, Grande-Bretagne (3062): reduced air pressure: 23.03.2020 22:00:00 - 29.03.2020 22:00:00 (BST)Tain Range, Grande-Bretagne (3062): visibility: 23.03.2020 22:00:00 - 29.03.2020 22:00:00 (BST)Tain Range, Grande-Bretagne (3062): Quantités de précipitations: 23.03.2020 22:00:00 - 29.03.2020 22:00:00 (BST)
Date & Time tt [°C] td [°C] tt -20cm [°C] tt -100cm [°C] ff [km/h] ff [knt] fx [km/h] fx [knt] dd ppp [hPa] vv [km] rr [mm]
29.03.2020 22:00:00 6,4 3,5 - - 22 12 - - NW 1043,5 30 0,0
29.03.2020 21:00:00 6,2 3,5 - - 21 11 - - WNW 1043,8 30 0,0
29.03.2020 20:00:00 6,5 3,3 - - 24 13 - - NW 1044,1 30 0,0
29.03.2020 19:00:00 6,2 4,1 - - 22 12 - - WNW 1044,3 13 0,0
29.03.2020 18:00:00 6,6 3,3 - - 28 15 - - WNW 1044,6 35 0,0
29.03.2020 17:00:00 7,0 3,2 - - 26 14 - - WNW 1045,2 25 0,0
29.03.2020 16:00:00 7,0 2,4 - - 24 13 - - WNW 1045,9 35 0,0
29.03.2020 15:00:00 7,3 2,0 - - 26 14 - - WNW 1046,3 40 0,0
29.03.2020 14:00:00 7,4 0,7 - - 31 17 - - WNW 1046,9 35 0,0
29.03.2020 13:00:00 7,1 -1,4 - - 24 13 - - WNW 1047,4 45 0,0
29.03.2020 12:00:00 5,9 -2,1 - - 22 12 - - WNW 1048,0 50 0,0
29.03.2020 11:00:00 5,2 -2,4 - - 22 12 - - WNW 1048,6 40 0,0
29.03.2020 10:00:00 3,9 -3,3 5,7 5,9 21 11 - - WNW 1048,9 35 0,0
29.03.2020 09:00:00 3,0 -3,3 - - 18 10 - - WNW 1048,6 45 0,0
29.03.2020 08:00:00 1,9 -2,4 - - 9 5 - - W 1048,9 45 0,0
29.03.2020 07:00:00 1,8 -2,7 - - 11 6 - - WNW 1048,8 35 0,0
29.03.2020 06:00:00 1,9 -3,0 - - 13 7 - - WNW 1048,7 50 0,0
29.03.2020 05:00:00 2,0 -3,9 - - 13 7 - - NW 1049,3 50 0,0
29.03.2020 04:00:00 2,1 -4,3 - - 15 8 - - NNW 1049,3 50 0,0
29.03.2020 03:00:00 1,9 -3,6 - - 13 7 - - NNW 1049,5 50 0,0
29.03.2020 02:00:00 1,9 -3,0 - - 13 7 - - NNW 1049,3 40 0,0
29.03.2020 01:00:00 2,3 -3,5 - - 11 6 - - NNW 1049,0 40 0,0
29.03.2020 00:00:00 2,7 -4,1 - - 16 9 - - NNE 1048,8 21 0,0
28.03.2020 23:00:00 1,9 -3,7 - - 15 8 - - NNW 1048,3 35 0,0
28.03.2020 22:00:00 2,3 -3,9 - - 16 9 - - NNW 1047,9 28 0,0
28.03.2020 21:00:00 2,4 -4,4 - - 22 12 - - N 1047,5 40 0,0
28.03.2020 20:00:00 2,9 -4,6 - - 24 13 - - NNE 1046,8 35 0,0
28.03.2020 19:00:00 4,1 -5,4 - - 29 16 - - N 1045,8 50 0,0
28.03.2020 18:00:00 4,4 -2,6 - - 35 19 - - NNE 1044,9 22 0,0
28.03.2020 17:00:00 6,0 0,0 - - 26 14 52 28 NE 1044,6 23 0,0
28.03.2020 16:00:00 6,5 -1,2 - - 34 18 54 29 NE 1044,3 35 0,0
28.03.2020 15:00:00 5,9 -0,9 - - 37 20 48 26 NE 1043,6 40 0,0
28.03.2020 14:00:00 7,5 -2,0 - - 31 17 48 26 NNE 1043,3 35 0,0
28.03.2020 13:00:00 6,1 -1,5 - - 34 18 - - NNE 1043,0 35 0,0
28.03.2020 12:00:00 4,0 -0,1 - - 29 16 - - NNE 1042,4 30 0,0
28.03.2020 11:00:00 5,5 0,2 - - 29 16 - - NE 1041,4 24 0,0
28.03.2020 10:00:00 4,9 0,1 6,2 5,7 24 13 - - N 1040,8 45 0,0
28.03.2020 09:00:00 4,6 1,6 - - 18 10 - - NNW 1039,9 20 0,0
28.03.2020 08:00:00 4,0 1,9 - - 13 7 - - NW 1039,1 26 0,0
28.03.2020 07:00:00 3,5 1,6 - - 15 8 - - NW 1038,6 27 0,2
28.03.2020 06:00:00 3,4 1,2 - - 16 9 - - NW 1038,1 21 0,0
28.03.2020 05:00:00 3,2 0,5 - - 11 6 - - WNW 1037,7 22 0,0
28.03.2020 04:00:00 5,0 2,8 - - 13 7 - - WNW 1037,7 19 0,0
28.03.2020 03:00:00 5,3 3,7 - - 15 8 - - WNW 1037,2 35 0,0
28.03.2020 02:00:00 5,4 3,7 - - 15 8 - - NW 1036,8 35 0,0
28.03.2020 01:00:00 5,3 3,0 - - 21 11 - - NW 1036,4 35 0,0
28.03.2020 00:00:00 3,7 2,2 - - 18 10 - - NW 1035,6 40 0,0
27.03.2020 23:00:00 4,2 2,2 - - 18 10 - - WNW 1035,3 35 0,0
27.03.2020 22:00:00 3,8 1,8 - - 15 8 - - NW 1035,3 35 0,0
27.03.2020 21:00:00 1,9 -0,1 - - 8 4 - - NW 1034,7 30 0,0
27.03.2020 20:00:00 5,1 2,2 - - 4 2 - - N 1034,1 50 0,0
27.03.2020 19:00:00 7,3 2,2 - - 4 2 - - NNW 1033,4 50 0,0
27.03.2020 18:00:00 9,1 2,5 - - 5 3 - - SSE 1032,9 45 0,0
27.03.2020 17:00:00 10,0 2,0 - - 5 3 - - SSE 1032,7 35 0,0
27.03.2020 16:00:00 9,6 2,2 - - 5 3 - - NE 1032,9 45 0,0
27.03.2020 15:00:00 9,7 1,8 - - 13 7 - - ENE 1032,6 50 0,0
27.03.2020 14:00:00 9,8 0,9 - - 5 3 - - N 1032,6 35 0,0
27.03.2020 13:00:00 9,8 1,0 - - 9 5 - - E 1032,4 45 0,0
27.03.2020 12:00:00 9,4 1,1 - - 5 3 - - N 1032,4 30 0,0
27.03.2020 11:00:00 8,2 2,0 - - 9 5 - - NNW 1032,0 45 0,0
27.03.2020 10:00:00 6,3 2,6 6,2 5,7 16 9 - - WNW 1031,8 40 0,0
27.03.2020 09:00:00 4,3 2,5 - - 16 9 - - WNW 1031,2 21 0,0
27.03.2020 08:00:00 2,9 2,2 - - 11 6 - - NW 1030,5 40 0,0
27.03.2020 07:00:00 2,9 1,9 - - 13 7 - - WNW 1030,2 35 0,0
27.03.2020 06:00:00 3,1 1,7 - - 13 7 - - WNW 1029,8 45 0,0
27.03.2020 05:00:00 4,7 3,3 - - 16 9 - - WNW 1029,7 50 0,0
27.03.2020 04:00:00 4,8 3,5 - - 16 9 - - WNW 1029,4 45 0,0
27.03.2020 03:00:00 5,2 4,1 - - 11 6 - - NW 1029,2 30 0,0
27.03.2020 02:00:00 5,3 4,6 - - 9 5 - - NW 1028,9 40 0,0
27.03.2020 01:00:00 4,8 4,2 - - 9 5 - - N 1028,9 35 0,0
27.03.2020 00:00:00 4,7 4,2 - - 8 4 - - N 1029,1 23 0,0
26.03.2020 23:00:00 4,8 4,2 - - 9 5 - - NNW 1029,0 20 0,0
26.03.2020 22:00:00 5,1 4,1 - - 5 3 - - W 1028,9 21 0,0
26.03.2020 21:00:00 5,6 4,3 - - 9 5 - - SSE 1028,9 35 0,0
26.03.2020 20:00:00 6,6 3,5 - - 16 9 - - SSE 1028,5 50 0,0
26.03.2020 19:00:00 7,9 2,6 - - 13 7 - - SSE 1028,1 50 0,0
26.03.2020 18:00:00 8,5 2,9 - - 15 8 - - SSE 1027,9 45 0,0
26.03.2020 17:00:00 9,2 0,9 - - 15 8 - - SE 1027,9 40 0,0
26.03.2020 16:00:00 10,1 1,0 - - 4 2 - - S 1028,0 50 0,0
26.03.2020 15:00:00 9,8 0,6 - - 15 8 - - SE 1028,1 29 0,0
26.03.2020 14:00:00 10,3 1,4 - - 5 3 - - ENE 1028,4 45 0,0
26.03.2020 13:00:00 9,8 0,4 - - 8 4 - - SSE 1028,5 35 0,0
26.03.2020 12:00:00 9,7 2,4 - - 4 2 - - W 1028,5 45 0,0
26.03.2020 11:00:00 8,2 3,3 - - 5 3 - - SW 1028,7 35 0,0
26.03.2020 10:00:00 5,3 2,1 6,0 5,4 5 3 - - SW 1028,7 40 0,0
26.03.2020 09:00:00 2,8 2,1 - - 8 4 - - WNW 1028,3 35 0,0
26.03.2020 08:00:00 0,8 0,3 - - 5 3 - - W 1027,9 25 0,0
26.03.2020 07:00:00 1,3 0,7 - - 13 7 - - WNW 1027,5 30 0,0
26.03.2020 06:00:00 2,4 1,6 - - 8 4 - - WSW 1026,8 45 0,0
26.03.2020 05:00:00 3,3 2,1 - - 11 6 - - NW 1026,3 50 0,0
26.03.2020 04:00:00 4,6 3,4 - - 13 7 - - WNW 1026,2 40 0,0
26.03.2020 03:00:00 5,6 4,5 - - 13 7 - - WNW 1025,9 50 0,0
26.03.2020 02:00:00 5,4 4,5 - - 4 2 - - WSW 1025,6 30 0,0
26.03.2020 01:00:00 5,4 4,7 - - 5 3 - - SSW 1025,5 50 0,0
26.03.2020 00:00:00 5,7 5,1 - - 5 3 - - WSW 1025,3 40 0,0
25.03.2020 23:00:00 5,7 5,1 - - 5 3 - - W 1025,0 50 0,0
25.03.2020 22:00:00 5,4 4,6 - - 9 5 - - WSW 1024,4 50 0,0
25.03.2020 21:00:00 6,2 5,2 - - 9 5 - - WNW 1024,0 14 0,2
25.03.2020 20:00:00 7,0 5,3 - - 8 4 - - W 1023,2 40 0,2
25.03.2020 19:00:00 7,6 5,0 - - 8 4 - - WNW 1022,6 25 0,2
25.03.2020 18:00:00 8,5 4,9 - - 11 6 - - WNW 1022,2 45 0,0
25.03.2020 17:00:00 8,8 6,0 - - 5 3 - - SW 1021,8 40 0,0
25.03.2020 16:00:00 8,5 6,7 - - 8 4 - - SW 1021,5 40 0,0
25.03.2020 15:00:00 8,8 6,3 - - 8 4 - - SW 1021,1 50 0,0
25.03.2020 14:00:00 8,7 6,7 - - 4 2 - - SSW 1020,8 25 0,0
25.03.2020 13:00:00 8,4 6,4 - - 2 1 - - NW 1020,3 19 0,0
25.03.2020 12:00:00 7,8 6,2 - - 2 1 - - SSE 1020,1 23 0,2
25.03.2020 11:00:00 7,0 6,0 - - 4 2 - - S 1019,4 26 0,2
25.03.2020 10:00:00 6,6 6,1 5,7 5,0 8 4 - - WNW 1018,5 35 0,4
25.03.2020 09:00:00 6,1 5,7 - - 13 7 - - NW 1017,4 4,8 0,6
25.03.2020 08:00:00 6,2 5,7 - - 22 12 - - WNW 1016,3 8 0,4
25.03.2020 07:00:00 6,8 6,1 - - 21 11 - - WNW 1014,8 3,6 1,8
25.03.2020 06:00:00 9,0 8,2 - - 18 10 - - SW 1013,1 9 0,2
25.03.2020 05:00:00 9,5 7,7 - - 21 11 - - SW 1012,3 16 0,0
25.03.2020 04:00:00 10,3 7,0 - - 24 13 - - SW 1011,9 45 0,0
25.03.2020 03:00:00 10,3 6,8 - - 15 8 - - WSW 1011,4 50 0,0
25.03.2020 02:00:00 10,6 6,8 - - 24 13 - - SW 1010,8 50 0,0
25.03.2020 01:00:00 10,6 6,8 - - 21 11 - - SW 1010,6 40 0,0
25.03.2020 00:00:00 10,8 6,9 - - 24 13 - - SSW 1010,4 35 0,0
24.03.2020 23:00:00 11,2 6,7 - - 26 14 - - SSW 1010,0 35 0,0
24.03.2020 22:00:00 11,4 6,6 - - 24 13 - - SSW 1009,8 25 0,0
24.03.2020 21:00:00 11,0 6,6 - - 21 11 - - SSW 1009,6 45 0,0
24.03.2020 20:00:00 11,2 6,7 - - 28 15 - - SW 1009,1 40 0,0
24.03.2020 19:00:00 10,8 6,7 - - 29 16 50 27 SSW 1009,1 40 0,0
24.03.2020 18:00:00 11,2 6,5 - - 34 18 50 27 SSW 1008,8 45 0,0
24.03.2020 17:00:00 11,4 6,5 - - 26 14 - - SSW 1008,7 45 0,0
24.03.2020 16:00:00 11,8 6,1 - - 24 13 57 31 SW 1009,1 35 0,0
24.03.2020 15:00:00 12,3 6,1 - - 35 19 63 34 WSW 1009,1 35 0,0
24.03.2020 14:00:00 12,9 5,5 - - 42 23 72 39 SW 1008,6 29 0,0
24.03.2020 13:00:00 13,7 6,5 - - 31 17 55 30 SW 1008,8 - 0,0
24.03.2020 12:00:00 11,5 5,8 - - 24 13 - - SW 1009,0 - 0,0
24.03.2020 11:00:00 10,4 4,4 - - 34 18 55 30 SSW 1009,5 45 0,0
24.03.2020 10:00:00 10,1 4,8 4,9 4,9 24 13 50 27 SW 1009,8 40 0,0
24.03.2020 09:00:00 9,3 4,8 - - 31 17 - - SW 1009,9 35 0,0
24.03.2020 08:00:00 8,4 4,7 - - 22 12 - - SSW 1010,3 45 0,0
24.03.2020 07:00:00 8,7 5,0 - - 24 13 50 27 SSW 1011,0 50 0,0
24.03.2020 06:00:00 8,3 5,7 - - 24 13 - - SW 1011,2 40 0,0
24.03.2020 05:00:00 8,3 5,8 - - 21 11 - - SW 1012,2 45 0,0
24.03.2020 04:00:00 8,2 6,1 - - 21 11 - - SW 1013,0 28 0,0
24.03.2020 03:00:00 8,7 5,8 - - 26 14 - - SW 1013,3 17 0,0
24.03.2020 02:00:00 8,3 5,5 - - 22 12 - - SW 1013,8 50 0,0
24.03.2020 01:00:00 8,1 5,5 - - 28 15 - - SSW 1014,1 28 0,0
24.03.2020 00:00:00 8,5 5,2 - - 26 14 46 25 SSW 1014,5 35 0,0
23.03.2020 23:00:00 8,6 4,8 - - 28 15 - - SW 1014,5 13 0,0
23.03.2020 22:00:00 - - - - - - - - - - - -

tt = Température de l'air
td = dewpoint
tt -20cm = Température de l'air -20cm
tt -100cm = Température de l'air -100cm
ff = Vitesse du vent
fx = gusts
dd = Direction du vent
ppp = reduced air pressure
vv = visibility
rr = Quantités de précipitations

stations d'obs. à proximité